Luverne, MN

5:28 AM CST on November 22, 2017 (GMT -0600)
Luverne

Weather History for KLYV - February, 2012

Change the Weather History Date:

Sunday, February 19, 2012

  Actual Average (KPQN) Record (KPQN)
Temperature  
Mean Temperature 29 °F -  
Max Temperature 41 °F 30 °F 62 °F (2017)
Min Temperature 17 °F 14 °F -13 °F (2008)
Degree Days  
Heating Degree Days 36    
Moisture  
Dew Point 22 °F    
Average Humidity 77    
Maximum Humidity 93    
Minimum Humidity 56    
Precipitation  
Precipitation 0.00 in - - ()
Sea Level Pressure  
Sea Level Pressure 30.01 in    
Wind  
Wind Speed 6 mph (SSE)    
Max Wind Speed 23 mph    
Max Gust Speed 28 mph    
Visibility 10 miles    
Events      
Averages and records for this station are not official NWS values.
T = Trace of Precipitation, MM = Missing Value Source: NWS Daily Summary

Daily Weather History Graph

Daily Weather History Graph

Search for Another Location

Airport or City:

Trip Planner

Search our weather history database for the weather conditions in past years. The results will help you decide how hot, cold, wet, or windy it might be!

Date:

Astronomy

Feb. 19, 2012 Rise Set
Actual Time 7:18 AM CST 5:59 PM CST
Civil Twilight 6:48 AM CST 6:29 PM CST
Nautical Twilight 6:15 AM CST 7:02 PM CST
Astronomical Twilight 5:42 AM CST 7:35 PM CST
Moon 5:42 AM CST (2/19) 4:00 PM CST (2/19)
Length of Visible Light 11h 40m
Length of Day
10h 41m
Waning Crescent, 5% of the Moon is Illuminated
Feb 19
Waning Crescent
Feb 21
New
Feb 29
First Quarter
Mar 8
Full
Mar 14
Last Quarter

Hourly Weather History & Observations

Time (CST) Temp. Windchill Dew Point Humidity Pressure Visibility Wind Dir Wind Speed Gust Speed Precip Events Conditions
12:17 AM 23.0 °F - 17.6 °F 80% 30.09 in 10.0 mi Calm Calm - N/A   Clear
12:36 AM 21.2 °F - 17.6 °F 86% 30.09 in 10.0 mi Calm Calm - N/A   Clear
12:57 AM 21.2 °F - 17.6 °F 86% 30.09 in 10.0 mi Calm Calm - N/A   Clear
1:16 AM 19.4 °F - 15.8 °F 86% 30.08 in 10.0 mi Calm Calm - N/A   Clear
1:36 AM 21.2 °F - 17.6 °F 86% 30.08 in 10.0 mi Calm Calm - N/A   Clear
1:57 AM 21.2 °F 16.4 °F 17.6 °F 86% 30.08 in 10.0 mi SSE 3.5 mph - N/A   Clear
2:16 AM 19.4 °F - 14.0 °F 80% 30.07 in 10.0 mi Calm Calm - N/A   Clear
2:36 AM 19.4 °F - 15.8 °F 86% 30.07 in 10.0 mi Calm Calm - N/A   Clear
3:17 AM 19.4 °F - 15.8 °F 86% 30.06 in 10.0 mi Calm Calm - N/A   Clear
3:36 AM 19.4 °F 14.3 °F 15.8 °F 86% 30.05 in 10.0 mi SSE 3.5 mph - N/A   Clear
3:57 AM 19.4 °F - 14.0 °F 80% 30.05 in 10.0 mi Calm Calm - N/A   Clear
4:37 AM 19.4 °F - 15.8 °F 86% 30.05 in 10.0 mi Calm Calm - N/A   Clear
4:56 AM 19.4 °F - 15.8 °F 86% 30.05 in 10.0 mi Calm Calm - N/A   Clear
5:16 AM 19.4 °F 12.8 °F 14.0 °F 80% 30.05 in 10.0 mi SSE 4.6 mph - N/A   Clear
5:37 AM 17.6 °F 10.7 °F 14.0 °F 86% 30.05 in 10.0 mi South 4.6 mph - N/A   Clear
5:56 AM 17.6 °F 12.3 °F 14.0 °F 86% 30.05 in 10.0 mi SSE 3.5 mph - N/A   Clear
6:16 AM 19.4 °F 12.8 °F 15.8 °F 86% 30.05 in 10.0 mi SSE 4.6 mph - N/A   Clear
6:37 AM 17.6 °F - 14.0 °F 86% 30.05 in 10.0 mi Calm Calm - N/A   Clear
6:56 AM 17.6 °F 8.2 °F 14.0 °F 86% 30.04 in 10.0 mi SSE 6.9 mph - N/A   Clear
7:16 AM 19.4 °F 12.8 °F 14.0 °F 80% 30.04 in 10.0 mi South 4.6 mph - N/A   Clear
7:37 AM 19.4 °F 12.8 °F 15.8 °F 86% 30.04 in 10.0 mi South 4.6 mph - N/A   Clear
7:57 AM 19.4 °F 8.6 °F 17.6 °F 93% 30.04 in 10.0 mi South 9.2 mph - N/A   Clear
8:16 AM 21.2 °F 10.9 °F 17.6 °F 86% 30.04 in 10.0 mi South 9.2 mph - N/A   Clear
8:37 AM 23.0 °F 11.7 °F 19.4 °F 86% 30.04 in 10.0 mi SSE 11.5 mph - N/A   Clear
8:56 AM 26.6 °F 15.7 °F 21.2 °F 80% 30.03 in 10.0 mi South 12.7 mph - N/A   Clear
9:16 AM 26.6 °F 16.8 °F 21.2 °F 80% 30.04 in 10.0 mi South 10.4 mph - N/A   Clear
9:37 AM 28.4 °F 19.7 °F 23.0 °F 80% 30.04 in 10.0 mi South 9.2 mph - N/A   Clear
9:57 AM 30.2 °F 19.8 °F 24.8 °F 80% 30.04 in 10.0 mi South 13.8 mph - N/A   Clear
10:16 AM 32.0 °F 22.1 °F 24.8 °F 75% 30.04 in 10.0 mi South 13.8 mph - N/A   Clear
10:37 AM 32.0 °F 22.1 °F 26.6 °F 80% 30.03 in 10.0 mi South 13.8 mph 18.4 mph N/A   Clear
10:56 AM 33.8 °F 23.2 °F 26.6 °F 75% 30.03 in 10.0 mi South 17.3 mph 20.7 mph N/A   Clear
11:16 AM 33.8 °F 23.2 °F 26.6 °F 75% 30.03 in 10.0 mi South 17.3 mph 20.7 mph N/A   Clear
11:37 AM 35.6 °F 26.2 °F 26.6 °F 70% 30.02 in 10.0 mi South 15.0 mph 20.7 mph N/A   Clear
11:56 AM 35.6 °F 25.9 °F 26.6 °F 70% 30.01 in 10.0 mi South 16.1 mph 19.6 mph N/A   Clear
12:16 PM 37.4 °F 27.8 °F 26.6 °F 65% 30.00 in 10.0 mi South 17.3 mph 21.9 mph N/A   Clear
12:37 PM 37.4 °F 27.8 °F 26.6 °F 65% 29.99 in 10.0 mi South 17.3 mph 21.9 mph N/A   Clear
12:57 PM 37.4 °F 28.2 °F 26.6 °F 65% 29.99 in 10.0 mi South 16.1 mph - N/A   Clear
1:37 PM 39.2 °F 30.5 °F 26.6 °F 61% 29.97 in 10.0 mi South 16.1 mph 20.7 mph N/A   Clear
1:56 PM 39.2 °F 30.2 °F 26.6 °F 61% 29.97 in 10.0 mi South 17.3 mph - N/A   Clear
2:16 PM 41.0 °F 32.5 °F 26.6 °F 57% 29.96 in 10.0 mi SSE 17.3 mph - N/A   Clear
2:37 PM 41.0 °F 32.5 °F 26.6 °F 57% 29.95 in 10.0 mi South 17.3 mph 24.2 mph N/A   Clear
2:56 PM 41.0 °F 32.2 °F 26.6 °F 57% 29.95 in 10.0 mi South 18.4 mph 24.2 mph N/A   Clear
3:17 PM 41.0 °F 31.1 °F 26.6 °F 57% 29.95 in 10.0 mi South 23.0 mph 27.6 mph N/A   Clear
3:36 PM 39.2 °F 29.8 °F 26.6 °F 61% 29.95 in 10.0 mi South 18.4 mph - N/A   Clear
3:57 PM 39.2 °F 29.8 °F 26.6 °F 61% 29.95 in 10.0 mi South 18.4 mph 25.3 mph N/A   Clear
4:17 PM 39.2 °F 29.6 °F 24.8 °F 56% 29.95 in 10.0 mi South 19.6 mph 27.6 mph N/A   Clear
4:36 PM 37.4 °F 27.5 °F 24.8 °F 60% 29.93 in 10.0 mi SSE 18.4 mph 23.0 mph N/A   Clear
4:57 PM 37.4 °F 28.5 °F 26.6 °F 65% 29.93 in 10.0 mi SSE 15.0 mph 23.0 mph N/A   Clear
5:17 PM 35.6 °F 28.0 °F 26.6 °F 70% 29.94 in 10.0 mi SSE 10.4 mph 17.3 mph N/A   Clear
5:36 PM 35.6 °F 28.0 °F 26.6 °F 70% 29.94 in 10.0 mi SSE 10.4 mph - N/A   Clear
5:57 PM 33.8 °F 26.4 °F 26.6 °F 75% 29.94 in 10.0 mi SSE 9.2 mph - N/A   Clear
6:16 PM 33.8 °F 27.0 °F 26.6 °F 75% 29.95 in 10.0 mi SSE 8.1 mph - N/A   Clear
6:36 PM 32.0 °F 25.6 °F 26.6 °F 80% 29.95 in 10.0 mi SSE 6.9 mph - N/A   Clear
6:57 PM 32.0 °F 25.6 °F 28.4 °F 87% 29.96 in 10.0 mi SSE 6.9 mph - N/A   Clear
7:17 PM 32.0 °F 24.2 °F 28.4 °F 87% 29.96 in 10.0 mi SSE 9.2 mph - N/A   Clear
7:36 PM 32.0 °F 24.8 °F 28.4 °F 87% 29.96 in 10.0 mi SSE 8.1 mph - N/A   Clear
7:57 PM 32.0 °F 23.6 °F 28.4 °F 87% 29.97 in 10.0 mi South 10.4 mph - N/A   Clear
8:16 PM 32.0 °F 24.2 °F 28.4 °F 87% 29.97 in 10.0 mi SSE 9.2 mph - N/A   Clear
8:36 PM 32.0 °F 23.0 °F 28.4 °F 87% 29.96 in 10.0 mi South 11.5 mph - N/A   Clear
9:17 PM 32.0 °F 24.8 °F 28.4 °F 87% 29.97 in 10.0 mi SSE 8.1 mph - N/A   Clear
9:37 PM 32.0 °F 25.6 °F 28.4 °F 87% 29.97 in 10.0 mi SSE 6.9 mph - N/A   Clear
9:57 PM 32.0 °F 24.2 °F 28.4 °F 87% 29.96 in 10.0 mi SSE 9.2 mph - N/A   Clear
10:16 PM 32.0 °F 24.8 °F 26.6 °F 80% 29.95 in 10.0 mi SSE 8.1 mph - N/A   Clear
10:37 PM 32.0 °F 23.0 °F 26.6 °F 80% 29.95 in 10.0 mi SSE 11.5 mph - N/A   Clear
10:57 PM 32.0 °F 24.2 °F 26.6 °F 80% 29.95 in 10.0 mi SSE 9.2 mph - N/A   Mostly Cloudy
11:16 PM 32.0 °F 23.0 °F 28.4 °F 87% 29.95 in 10.0 mi SSE 11.5 mph - N/A   Overcast
11:37 PM 32.0 °F 23.6 °F 26.6 °F 80% 29.95 in 10.0 mi SSE 10.4 mph - N/A   Overcast
11:57 PM 32.0 °F 23.0 °F 26.6 °F 80% 29.95 in 10.0 mi SSE 11.5 mph - N/A   Overcast